Date String (YYYY-MM-DD hh:mm:ss) UTC,Instrument flags,Ambient pressure (hPa),Sample flow (lpm),Bypass flow (lpm),Sample temperature (°C),Ambient temperature (°C),ASC tube jacket temperature (°C),LED temperature (°C),Box temperature (°C),Sample RH (%),Span deviation,Mass concentration (μg/m³),Mass concentration (μg/m³),Mass concentration (μg/m³)
DateTimeUTC,F1_M11,P_M11,Q1_M11,Q2_M11,T1_M11,T2_M11,T3_M11,T4_M11,T5_M11,U1_M11,ZSPAN_M11,X0_M11,X2_M11,X1_M11
2021-09-22 03:00:00,,0838.5,5.00,0.00,30.1,29.1,00.0,39.1,31.8,11.8,0000.0,0010.17,0003.32,0002.47
2021-09-22 03:01:00,,0838.6,5.00,0.00,30.0,29.1,00.0,39.1,31.8,11.8,0000.0,0009.32,0003.31,0002.46
2021-09-22 03:02:00,,0838.5,5.00,0.00,30.1,29.1,00.0,39.1,31.8,11.9,0000.0,0009.21,0003.34,0002.47
2021-09-22 03:03:00,,0838.5,5.00,0.00,30.1,29.2,00.0,39.2,31.9,11.9,0000.0,0009.31,0003.37,0002.49
2021-09-22 03:04:00,,0838.5,5.01,0.00,30.1,29.2,00.0,39.2,31.8,11.9,0000.0,0009.47,0003.33,0002.49
2021-09-22 03:05:00,,0838.5,4.99,0.00,30.1,29.2,00.0,39.2,31.8,11.9,0000.0,0009.52,0003.34,0002.50
2021-09-22 03:06:00,,0838.5,5.00,0.00,30.1,29.2,00.0,39.2,31.8,11.9,0000.0,0009.58,0003.37,0002.52
2021-09-22 03:07:00,,0838.5,5.01,0.00,30.1,29.2,00.0,39.2,31.9,12.0,0000.0,0009.96,0003.42,0002.55
2021-09-22 03:08:00,,0838.5,4.99,0.00,30.1,29.2,00.0,39.2,31.8,11.9,0000.0,0009.61,0003.42,0002.56
2021-09-22 03:09:00,,0838.6,5.01,0.00,30.1,29.2,00.0,39.2,31.7,11.8,0000.0,0009.37,0003.40,0002.58
2021-09-22 03:10:00,,0838.5,4.99,0.00,30.1,29.2,00.0,39.2,31.8,11.8,0000.0,0009.09,0003.40,0002.57
2021-09-22 03:11:00,,0838.5,5.00,0.00,30.1,29.1,00.0,39.2,31.8,11.8,0000.0,0009.20,0003.34,0002.56
2021-09-22 03:12:00,,0838.5,5.00,0.00,30.0,29.1,00.0,39.2,31.7,11.7,0000.0,0009.14,0003.36,0002.55
2021-09-22 03:13:00,,0838.5,5.01,0.00,30.1,29.1,00.0,39.2,31.7,11.8,0000.0,0009.30,0003.36,0002.54
2021-09-22 03:14:00,,0838.5,4.99,0.00,30.1,29.2,00.0,39.2,31.8,11.6,0000.0,0009.59,0003.36,0002.52
2021-09-22 03:15:00,,0838.5,5.00,0.00,30.1,29.2,00.0,39.2,31.9,11.6,0000.0,0009.52,0003.39,0002.52
2021-09-22 03:16:00,,0838.5,5.00,0.00,30.1,29.2,00.0,39.2,31.8,11.7,0000.0,0009.25,0003.40,0002.52
2021-09-22 03:17:00,,0838.5,5.00,0.00,30.1,29.2,00.0,39.2,31.8,11.7,0000.0,0009.21,0003.40,0002.53
2021-09-22 03:18:00,,0838.5,4.99,0.00,30.1,29.2,00.0,39.2,31.8,11.8,0000.0,0009.79,0003.37,0002.53
2021-09-22 03:19:00,,0838.6,5.00,0.00,30.1,29.2,00.0,39.2,31.9,11.8,0000.0,0009.93,0003.42,0002.55
2021-09-22 03:20:00,,0838.6,5.01,0.00,30.1,29.2,00.0,39.2,31.8,11.7,0000.0,0009.72,0003.44,0002.55
2021-09-22 03:21:00,,0838.5,5.00,0.00,30.1,29.2,00.0,39.2,31.8,11.8,0000.0,0009.62,0003.44,0002.57
2021-09-22 03:22:00,,0838.6,5.01,0.00,30.1,29.2,00.0,39.2,31.8,11.8,0000.0,0009.43,0003.50,0002.60
2021-09-22 03:23:00,,0838.5,4.99,0.00,30.1,29.2,00.0,39.2,31.9,11.8,0000.0,0010.38,0003.54,0002.64
2021-09-22 03:24:00,,0838.6,4.99,0.00,30.1,29.2,00.0,39.2,31.8,11.8,0000.0,0010.39,0003.56,0002.67
2021-09-22 03:25:00,,0838.6,5.01,0.00,30.1,29.2,00.0,39.2,31.8,11.8,0000.0,0010.40,0003.58,0002.69
2021-09-22 03:26:00,,0838.6,5.00,0.00,30.1,29.2,00.0,39.2,31.8,11.8,0000.0,0010.47,0003.58,0002.71
2021-09-22 03:27:00,,0838.6,4.98,0.00,30.1,29.2,00.0,39.2,31.8,11.8,0000.0,0010.49,0003.57,0002.72
2021-09-22 03:28:00,,0838.6,4.99,0.00,30.1,29.2,00.0,39.2,31.8,11.8,0000.0,0010.56,0003.58,0002.74
2021-09-22 03:29:00,,0838.6,5.02,0.00,30.1,29.2,00.0,39.2,31.8,11.8,0000.0,0009.81,0003.58,0002.76
2021-09-22 03:30:00,,0838.6,5.00,0.00,30.1,29.2,00.0,39.2,31.8,11.8,0000.0,0009.39,0003.57,0002.76
2021-09-22 03:31:00,,0838.6,4.99,0.00,30.1,29.2,00.0,39.2,31.8,11.8,0000.0,0009.34,0003.55,0002.78
2021-09-22 03:32:00,,0838.6,4.99,0.00,30.1,29.2,00.0,39.2,31.8,11.8,0000.0,0009.77,0003.58,0002.79
2021-09-22 03:33:00,,0838.6,5.02,0.00,30.1,29.2,00.0,39.2,31.7,11.8,0000.0,0009.65,0003.55,0002.79
2021-09-22 03:34:00,,0838.6,4.99,0.00,30.1,29.2,00.0,39.2,31.8,11.8,0000.0,0008.72,0003.53,0002.79
2021-09-22 03:35:00,,0838.6,5.00,0.00,30.1,29.2,00.0,39.2,31.8,11.8,0000.0,0008.71,0003.50,0002.79
2021-09-22 03:36:00,,0838.6,5.00,0.00,30.1,29.2,00.0,39.2,31.7,11.8,0000.0,0009.06,0003.48,0002.79
2021-09-22 03:37:00,,0838.6,5.01,0.00,30.1,29.2,00.0,39.2,31.7,11.7,0000.0,0008.89,0003.50,0002.81
2021-09-22 03:38:00,,0838.6,5.00,0.00,30.1,29.2,00.0,39.2,31.7,11.7,0000.0,0009.77,0003.48,0002.81
2021-09-22 03:39:00,,0838.6,4.98,0.00,30.1,29.2,00.0,39.2,31.7,11.7,0000.0,0010.15,0003.45,0002.79
2021-09-22 03:40:00,,0838.6,5.00,0.00,30.1,29.2,00.0,39.2,31.8,11.7,0000.0,0010.12,0003.43,0002.77
2021-09-22 03:41:00,,0838.6,5.00,0.00,30.1,29.2,00.0,39.2,31.8,11.7,0000.0,0009.93,0003.41,0002.76
2021-09-22 03:42:00,,0838.5,4.99,0.00,30.0,29.2,00.0,39.2,31.7,11.7,0000.0,0009.93,0003.40,0002.75
2021-09-22 03:43:00,,0838.6,5.01,0.00,30.0,29.2,00.0,39.2,31.7,11.7,0000.0,0009.85,0003.39,0002.75
2021-09-22 03:44:00,,0838.5,4.99,0.00,30.0,29.2,00.0,39.2,31.8,11.7,0000.0,0010.49,0003.40,0002.73
2021-09-22 03:45:00,,0838.5,5.00,0.00,30.0,29.2,00.0,39.2,31.8,11.7,0000.0,0010.56,0003.39,0002.73
2021-09-22 03:46:00,,0838.6,5.01,0.00,30.0,29.2,00.0,39.2,31.8,11.7,0000.0,0011.31,0003.41,0002.72
2021-09-22 03:47:00,,0838.6,5.00,0.00,30.0,29.1,00.0,39.2,31.7,11.6,0000.0,0010.66,0003.37,0002.69
2021-09-22 03:48:00,,0838.6,5.00,0.00,30.0,29.1,00.0,39.2,31.7,11.6,0000.0,0010.88,0003.34,0002.66
2021-09-22 03:49:00,,0838.6,4.99,0.00,30.0,29.1,00.0,39.2,31.8,11.6,0000.0,0010.77,0003.33,0002.62
2021-09-22 03:50:00,,0838.5,5.01,0.00,30.0,29.1,00.0,39.2,31.8,11.7,0000.0,0010.03,0003.32,0002.61
2021-09-22 03:51:00,,0838.6,5.00,0.00,30.0,29.1,00.0,39.2,31.8,11.6,0000.0,0010.05,0003.30,0002.60
2021-09-22 03:52:00,,0838.5,5.00,0.00,30.0,29.1,00.0,39.2,31.8,11.6,0000.0,0010.50,0003.32,0002.59
2021-09-22 03:53:00,,0838.5,5.00,0.00,30.0,29.1,00.0,39.2,31.7,11.6,0000.0,0010.47,0003.32,0002.56
2021-09-22 03:54:00,,0838.5,5.00,0.00,30.0,29.1,00.0,39.2,31.8,11.7,0000.0,0010.52,0003.37,0002.55
2021-09-22 03:55:00,,0838.5,4.99,0.00,30.0,29.2,00.0,39.2,31.7,11.7,0000.0,0010.36,0003.39,0002.53
2021-09-22 03:56:00,,0838.5,5.00,0.00,30.0,29.2,00.0,39.2,31.7,11.6,0000.0,0010.25,0003.39,0002.52
2021-09-22 03:57:00,,0838.5,5.00,0.00,30.0,29.2,00.0,39.2,31.8,11.7,0000.0,0010.09,0003.36,0002.50
2021-09-22 03:58:00,,0838.5,4.99,0.00,30.0,29.2,00.0,39.2,31.8,11.5,0000.0,0010.00,0003.36,0002.50
2021-09-22 03:59:00,,0838.5,4.99,0.00,30.0,29.2,00.0,39.2,31.8,11.6,0000.0,0009.90,0003.39,0002.50
